This is the latest recevied weather packets stored in our database for station/object KK7MLS-13. If no packets are shown the sender has not sent any weather packets the latest 10 day(s).
| Time | Temp. | Humidity | Pressure | Rain* | Wind** | Luminosity | Snow |
|---|---|---|---|---|---|---|---|
| 1788380753 | 14.44° C | 94% | 1006.5 hPa | 0 mm | - | 80 W/m² | - |
| 1788380450 | 14.44° C | 94% | 1006.6 hPa | 0 mm | - | 82 W/m² | - |
| 1788380146 | 14.44° C | 94% | 1006.3 hPa | 0 mm | - | 74 W/m² | - |
| 1788379844 | 14.44° C | 94% | 1006.6 hPa | 0 mm | - | 69 W/m² | - |
| 1788379540 | 14.44° C | 94% | 1006.7 hPa | 0 mm | - | 68 W/m² | - |
| 1788379236 | 14.44° C | 94% | 1006.4 hPa | 1.27 mm | - | 52 W/m² | - |
| 1788378931 | 14.44° C | 94% | 1006.7 hPa | 3.05 mm | - | 78 W/m² | - |
| 1788378630 | 13.89° C | 94% | 1006.6 hPa | 3.05 mm | - | 62 W/m² | - |
| 1788378330 | 13.89° C | 93% | 1006.8 hPa | 3.05 mm | - | 58 W/m² | - |
| 1788378026 | 14.44° C | 93% | 1006.8 hPa | 1.78 mm | - | 52 W/m² | - |
| 1788377721 | 14.44° C | 94% | 1006.6 hPa | 3.05 mm | - | 56 W/m² | - |
| 1788377435 | 14.44° C | 93% | 1006.9 hPa | 4.83 mm | - | 52 W/m² | - |
| 1788377119 | 14.44° C | 93% | 1007 hPa | 4.83 mm | - | 61 W/m² | - |
| 1788376818 | 14.44° C | 93% | 1007.2 hPa | 3.05 mm | - | 52 W/m² | - |
| 1788376514 | 14.44° C | 93% | 1007.2 hPa | 3.05 mm | - | 53 W/m² | - |
| 1788376208 | 14.44° C | 93% | 1007.1 hPa | 1.27 mm | - | 54 W/m² | - |
| 1788375903 | 14.44° C | 92% | 1007.2 hPa | 3.05 mm | - | 59 W/m² | - |
| 1788375599 | 14.44° C | 92% | 1007.1 hPa | 1.78 mm | - | 61 W/m² | - |
| 1788375295 | 14.44° C | 92% | 1007.1 hPa | 1.27 mm | - | 59 W/m² | - |
| 1788374990 | 14.44° C | 91% | 1006.9 hPa | 3.05 mm | - | 50 W/m² | - |
| 1788374685 | 14.44° C | 91% | 1007 hPa | 1.78 mm | - | 42 W/m² | - |
| 1788374381 | 14.44° C | 91% | 1007.1 hPa | 1.27 mm | - | 39 W/m² | - |
| 1788374077 | 14.44° C | 91% | 1007.1 hPa | 0 mm | - | 44 W/m² | - |
| 1788373773 | 14.44° C | 91% | 1007.2 hPa | 0 mm | - | 65 W/m² | - |
| 1788373469 | 14.44° C | 90% | 1007.2 hPa | 1.78 mm | - | 66 W/m² | - |
* Rain latest hour (hover to see other rain measurements)
** Current wind speed in m/s (hover to see current wind gust speed)